TimeAEST,TemperatureF,Dew PointF,Humidity,Sea Level PressureIn,VisibilityMPH,Wind Direction,Wind SpeedMPH,Gust SpeedMPH,PrecipitationIn,Events,Conditions,WindDirDegrees,DateUTC
12:00 AM,44,41,87,30.38,19,North,11.5,,,,Partly Cloudy,350,2013-07-07 14:00:00
12:00 AM,44.6,41.0,87,30.36,6.2,North,11.5,-,N/A,,Partly Cloudy,350,2013-07-07 14:00:00
12:30 AM,42.8,39.2,87,30.36,6.2,NNW,8.1,-,N/A,,Partly Cloudy,340,2013-07-07 14:30:00
1:00 AM,42,39,83,30.38,,North,11.5,,,,,350,2013-07-07 15:00:00
1:00 AM,41.0,39.2,93,30.36,6.2,North,11.5,-,N/A,,Partly Cloudy,350,2013-07-07 15:00:00
1:30 AM,41.0,37.4,87,30.36,6.2,North,8.1,-,N/A,,Partly Cloudy,350,2013-07-07 15:30:00
2:00 AM,41.0,37.4,87,30.39,6.2,NNW,8.1,-,N/A,,Partly Cloudy,340,2013-07-07 16:00:00
2:30 AM,42.8,37.4,81,30.39,6.2,North,11.5,-,N/A,,Partly Cloudy,350,2013-07-07 16:30:00
3:00 AM,42,38,79,30.40,19,NNW,10.4,,,,Partly Cloudy,340,2013-07-07 17:00:00
3:00 AM,42.8,37.4,81,30.39,6.2,NNW,10.4,-,N/A,,Partly Cloudy,340,2013-07-07 17:00:00
3:30 AM,41.0,37.4,87,30.39,6.2,NNW,10.4,-,N/A,,Partly Cloudy,340,2013-07-07 17:30:00
4:00 AM,40,36,82,30.41,,North,9.2,,,,,350,2013-07-07 18:00:00
4:00 AM,41.0,37.4,87,30.39,6.2,North,9.2,-,N/A,,Partly Cloudy,350,2013-07-07 18:00:00
4:30 AM,41.0,35.6,81,30.39,6.2,North,10.4,-,N/A,,Partly Cloudy,350,2013-07-07 18:30:00
5:00 AM,39.2,35.6,87,30.39,6.2,North,9.2,-,N/A,,Partly Cloudy,350,2013-07-07 19:00:00
5:30 AM,41.0,35.6,81,30.42,6.2,North,10.4,-,N/A,,Partly Cloudy,350,2013-07-07 19:30:00
6:00 AM,40,35,75,30.44,19,North,10.4,,,,Partly Cloudy,350,2013-07-07 20:00:00
6:00 AM,39.2,35.6,87,30.42,6.2,North,10.4,-,N/A,,Partly Cloudy,350,2013-07-07 20:00:00
6:30 AM,39.2,33.8,81,30.45,6.2,North,9.2,-,N/A,,Partly Cloudy,350,2013-07-07 20:30:00
7:00 AM,38,34,80,30.47,,North,10.4,,,,,350,2013-07-07 21:00:00
7:00 AM,37.4,33.8,87,30.45,6.2,North,10.4,-,N/A,,Partly Cloudy,350,2013-07-07 21:00:00
7:30 AM,39.2,33.8,81,30.45,6.2,North,10.4,-,N/A,,Partly Cloudy,360,2013-07-07 21:30:00
8:00 AM,41.0,33.8,76,30.48,6.2,North,10.4,-,N/A,,Partly Cloudy,360,2013-07-07 22:00:00
8:30 AM,39.2,35.6,87,30.48,6.2,North,11.5,-,N/A,,Partly Cloudy,360,2013-07-07 22:30:00
9:00 AM,44,36,65,30.51,25,North,10.4,,,,Partly Cloudy,0,2013-07-07 23:00:00
9:00 AM,44.6,35.6,71,30.48,6.2,North,10.4,-,N/A,,Partly Cloudy,360,2013-07-07 23:00:00
9:30 AM,46.4,37.4,71,30.48,6.2,North,6.9,-,N/A,,Partly Cloudy,350,2013-07-07 23:30:00
10:00 AM,50,38,53,30.52,,NNW,6.9,,,,,340,2013-07-08 00:00:00
10:00 AM,50.0,37.4,62,30.51,6.2,NNW,6.9,-,N/A,,Partly Cloudy,340,2013-07-08 00:00:00
10:30 AM,51.8,39.2,62,30.51,6.2,WNW,5.8,-,N/A,,Partly Cloudy,290,2013-07-08 00:30:00
11:00 AM,51.8,39.2,62,30.51,6.2,West,5.8,-,N/A,,Partly Cloudy,260,2013-07-08 01:00:00
11:30 AM,53.6,39.2,58,30.51,6.2,WSW,8.1,-,N/A,,Partly Cloudy,240,2013-07-08 01:30:00
12:00 PM,54,39,45,30.52,25,WSW,10.4,,,,Partly Cloudy,240,2013-07-08 02:00:00
12:00 PM,53.6,39.2,58,30.51,6.2,SW,10.4,-,N/A,,Partly Cloudy,230,2013-07-08 02:00:00
12:30 PM,55.4,39.2,54,30.48,6.2,SW,9.2,-,N/A,,Scattered Clouds,230,2013-07-08 02:30:00
1:00 PM,54,38,44,30.50,,SW,6.9,,,,,230,2013-07-08 03:00:00
1:00 PM,53.6,39.2,58,30.48,6.2,SW,6.9,-,N/A,,Mostly Cloudy,230,2013-07-08 03:00:00
1:30 PM,55.4,37.4,51,30.48,6.2,SSW,10.4,-,N/A,,Mostly Cloudy,210,2013-07-08 03:30:00
2:00 PM,57.2,37.4,48,30.48,6.2,SSW,10.4,-,N/A,,Mostly Cloudy,210,2013-07-08 04:00:00
2:30 PM,53.6,39.2,58,30.48,6.2,South,10.4,-,N/A,,Mostly Cloudy,190,2013-07-08 04:30:00
3:00 PM,53,40,50,30.50,25,SSW,5.8,,,,Mostly Cloudy,200,2013-07-08 05:00:00
3:00 PM,53.6,39.2,58,30.48,6.2,SSW,5.8,-,N/A,,Mostly Cloudy,200,2013-07-08 05:00:00
3:30 PM,55.4,39.2,54,30.48,6.2,Calm,Calm,-,N/A,,Mostly Cloudy,0,2013-07-08 05:30:00
4:00 PM,55,39,43,30.50,,South,6.9,,,,,190,2013-07-08 06:00:00
4:00 PM,55.4,39.2,54,30.48,6.2,South,6.9,-,N/A,,Scattered Clouds,190,2013-07-08 06:00:00
4:30 PM,53.6,42.8,67,30.48,6.2,SSE,8.1,-,N/A,,Scattered Clouds,160,2013-07-08 06:30:00
5:00 PM,51.8,41.0,67,30.48,6.2,South,6.9,-,N/A,,Scattered Clouds,170,2013-07-08 07:00:00
5:30 PM,50.0,42.8,76,30.51,6.2,South,4.6,-,N/A,,Scattered Clouds,170,2013-07-08 07:30:00
6:00 PM,51,42,61,30.53,25,Calm,Calm,,,,Partly Cloudy,,2013-07-08 08:00:00
6:00 PM,50.0,41.0,71,30.51,6.2,Calm,Calm,-,N/A,,Scattered Clouds,0,2013-07-08 08:00:00
6:30 PM,48.2,41.0,76,30.51,6.2,NNE,5.8,-,N/A,,Scattered Clouds,30,2013-07-08 08:30:00
7:00 PM,49,41,66,30.54,,North,4.6,,,,,10,2013-07-08 09:00:00
7:00 PM,50.0,41.0,71,30.54,6.2,North,4.6,-,N/A,,Scattered Clouds,10,2013-07-08 09:00:00
7:30 PM,48.2,41.0,76,30.54,6.2,WNW,5.8,-,N/A,,Mostly Cloudy,300,2013-07-08 09:30:00
8:00 PM,46.4,41.0,81,30.54,-9999.0,North,2.3,-,N/A,,Clear,350,2013-07-08 10:00:00
8:30 PM,44.6,39.2,81,30.54,-9999.0,WNW,4.6,-,N/A,,Clear,300,2013-07-08 10:30:00
9:00 PM,43,39,81,30.56,25,North,4.6,,,,Partly Cloudy,0,2013-07-08 11:00:00
9:00 PM,42.8,39.2,87,30.54,-9999.0,North,4.6,-,N/A,,Clear,360,2013-07-08 11:00:00
9:30 PM,42.8,39.2,87,30.54,6.2,North,6.9,-,N/A,,Partly Cloudy,360,2013-07-08 11:30:00
10:00 PM,43,39,81,30.56,,NNW,2.3,,,,,340,2013-07-08 12:00:00
10:00 PM,42.8,39.2,87,30.54,6.2,NNW,2.3,-,N/A,,Partly Cloudy,340,2013-07-08 12:00:00
10:30 PM,41.0,39.2,93,30.54,6.2,North,3.5,-,N/A,,Partly Cloudy,360,2013-07-08 12:30:00
11:00 PM,42.8,39.2,87,30.54,6.2,North,6.9,-,N/A,,Partly Cloudy,350,2013-07-08 13:00:00
11:30 PM,41.0,37.4,87,30.57,6.2,North,9.2,-,N/A,,Partly Cloudy,360,2013-07-08 13:30:00